Home > Weather > El Paso > Past weeks

Flag for USA Past Weather in El Paso, Texas, USA — Yesterday and Last 2 Weeks

Now
84 °F

Broken clouds.


Feels Like: 81 °F
Forecast: 64 / 90 °F
Wind: No wind

Location: El Paso International Airport

Current Time: May 30, 2016 at 6:10:13 PM

Latest Report: May 30, 2016 at 4:51 PM


Visibility: 10 mi

Pressure: 29.70 "Hg (26.10 "Hg at 1142m altitude)

Humidity: 22%

Dew Point: 41 °F

Location of El PasoLocation

Past Weather in El Paso — Graph

°F

El Paso Temperature Yesterday

Maximum temperature yesterday: 93 °F (at 4:51 PM)
Minimum temperature yesterday: 68 °F (at 12:51 AM)
Average temperature yesterday: 83 °F

High & Low Weather Summary for the Past Weeks

 TemperatureHumidityPressure
High93 °F (May 29, 4:51 PM)80% (May 19, 2:51 AM)30.05 "Hg (May 19, 2:51 AM)
Low51 °F (May 19, 4:51 AM)3% (May 28, 3:51 PM)29.55 "Hg (May 16, 5:51 PM)
Average77 °F20%29.75 "Hg
* Reported May 15 3:51 PM — May 30 3:51 PM, El Paso, Weather by CustomWeather, © 2016

Note: Actual official high and low records may vary slightly from our data, if they occured in-between our weather recording intervals... More about our weather records

Advertising

El Paso Weather History for the Previous 24 Hours

Scroll right to see more
 ConditionsComfort  
Time TempWeatherWind HumidityBarometerVisibility
3:51 PM
Mon, May 30
86 °FPartly sunny.29 mph19%29.70 "Hg9 mi
2:51 PM85 °FScattered clouds.6 mph21%29.70 "Hg10 mi
1:51 PM88 °FScattered clouds.3 mph19%29.72 "Hg10 mi
12:51 PM88 °FScattered clouds.9 mph18%29.76 "Hg10 mi
11:51 AM88 °FScattered clouds.15 mph19%29.79 "Hg10 mi
10:51 AM84 °FScattered clouds.6 mph22%29.81 "Hg10 mi
8:51 AM79 °FScattered clouds.13 mph27%29.84 "Hg10 mi
7:51 AM79 °FPassing clouds.3 mph25%29.83 "Hg10 mi
6:58 AM72 °FPassing clouds.No wind37%30.05 "Hg10 mi
5:51 AM71 °FPassing clouds.7 mph35%29.81 "Hg10 mi
4:51 AM71 °FPassing clouds.7 mph34%29.79 "Hg10 mi
3:51 AM74 °FPassing clouds.9 mph29%29.78 "Hg10 mi
2:51 AM73 °FPassing clouds.8 mph32%29.78 "Hg10 mi
1:51 AM75 °FPassing clouds.9 mph28%29.79 "Hg10 mi
12:51 AM77 °FPassing clouds.10 mph24%29.79 "Hg10 mi
11:51 PM
Sun, May 29
79 °FPassing clouds.7 mph20%29.78 "Hg10 mi
10:51 PM79 °FPassing clouds.7 mph20%29.78 "Hg10 mi
9:51 PM82 °FPassing clouds.8 mph18%29.78 "Hg10 mi
8:51 PM84 °FPassing clouds.12 mph17%29.77 "Hg10 mi
7:51 PM85 °FPassing clouds.14 mph16%29.76 "Hg10 mi
6:51 PM88 °FPassing clouds.15 mph13%29.74 "Hg10 mi
Weather by CustomWeather, © 2016

See weather overviewHow to use our weather pages